www.pogodaiklimat.ru

Погода и климат >> Архив погоды >> Сенегал >> Kolda


ПОГОДА в Kolda

  • Прогноз погоды в Kolda
  • Монитор погоды в Kolda
  • Климат города

АРХИВ ПОГОДЫ в Kolda

Время (UTC), дата Ветер
(напр.,м/с)
 
Видим.   Явления Облачность Т
(С)
Тd
(С)
f
(%)
Тe
(С)
Тes
(С)
Комфортность P
(гПа)
Po
(гПа)
Тmin
(С)
Tmax
(С)
R
(мм)
R24
(мм)
S
(см)
03 14.06 Ю 1 6000 м слабый дождь 10/4 600 м
[Sc Ac As]
+24.5 +23.8 96 +33 +33 очень
душно
1012.7 1011.6
06 14.06 ЮЗ 1 8000 м {гроза, дождь} 9/4 600 м
[Sc Ac As]
+25.0 +24.3 96 +35 +35 очень
душно
1012.4 1011.3 +24.0 38
09 14.06 ЮЗ 2 10 км слабый дождь 10/4 600 м
[Sc Ac As]
+25.8 +24.7 94 +37 +38 очень
душно
1014.5 1013.4
12 14.06 В 3 10 км {дождь} 9/4 600 м
[Sc Ac As]
+28.2 +23.6 76 +38 +43 очень
душно
1015.3 1014.2 0.0
15 14.06 В 3 10 км 9/4 600 м
[Cu hum Ac As]
+31.9 +25.0 67 +45 +49 опасность
перегрева
1013.7 1012.6
18 14.06 штиль 0 10 км в посл. час дождь 9/4 600 м
[Sc Ac As]
+30.8 +23.2 64 +41 +42 опасность
перегрева
1011.6 1010.5 +32.0 0.0
21 14.06 штиль 0 8000 м 4/0
[Ac trans]
+27.5 +25.0 86 +39 +39 очень
душно
1012.6 1011.5
00 15.06 Ю 1 8000 м 8/0
[Ac trans]
+27.7 +24.6 83 +39 +39 очень
душно
1014.4 1013.3
03 15.06 штиль 0 8000 м 9/0
[Ac As]
+27.5 +25.4 88 +40 +40 очень
душно
1013.0 1011.9
06 15.06 штиль 0 8000 м 9/9
[Cu med, cong Ac As]
+27.2 +26.1 94 +41 +41 опасность
перегрева
1012.7 1011.6 +26.9 0.0
09 15.06 Ю 1 10 км 6/5 600 м
[Sc Ac trans]
+28.4 +26.5 89 +43 +47 опасность
перегрева
1014.2 1013.1
12 15.06 С 1 10 км 6/6 600 м
[Cu hum]
+32.9 +23.8 59 +44 +54 опасность
перегрева
1014.5 1013.4
15 15.06 СВ 2 10 км 6/4 600 м
[Cu hum Ac trans]
+36.0 +23.2 48 +46 +54 опасность
перегрева
1011.9 1010.8
18 15.06 СВ 2 10 км 5/5 600 м
[Cu med, cong]
+36.0 +23.2 48 +46 +47 опасность
перегрева
1010.3 1009.2 +38.2
21 15.06 Ю 5 8000 м гроза без осадков 9/9 600 м
[Cb calv]
+29.5 +23.8 71 +40 +40 очень
душно
1014.2 1013.1
00 16.06 С 3 8000 м {гроза, дождь} 9/9 600 м
[Sc]
+26.6 +23.7 84 +36 +36 очень
душно
1014.6 1013.5 7
03 16.06 ЮЗ 2 8000 м 9/4 600 м
[Sc Ac As]
+25.6 +24.0 91 +35 +35 очень
душно
1012.5 1011.4
06 16.06 ЮЗ 2 8000 м 9/0
[Ac As]
+25.0 +24.3 96 +35 +35 очень
душно
1012.6 1011.5 +24.8 7
09 16.06 ЮЗ 2 10 км 9/0
[Ac As]
+27.0 +24.9 88 +39 +41 очень
душно
1015.0 1013.9
12 16.06 Ю 2 10 км 3/3 600 м
[Cu hum]
+32.0 +24.5 65 +45 +59 опасность
перегрева
1015.3 1014.2
15 16.06 СЗ 2 10 км 4/4 600 м
[Cu hum]
+35.5 +22.1 46 +44 +54 опасность
перегрева
1012.5 1011.4
18 16.06 СЗ 3 10 км 3/3 600 м
[Cu hum]
+36.0 +20.6 41 +43 +44 опасность
перегрева
1011.2 1010.1 +38.0
21 16.06 ЮЗ 2 8000 м ясно +31.6 +20.3 51 +38 +38 очень
душно
1012.8 1011.7
00 17.06 З 5 8000 м ясно +28.7 +20.6 62 +36 +36 очень
душно
1014.6 1013.5
03 17.06 ЮЗ 2 8000 м ясно +26.4 +20.2 69 +33 +33 очень
душно
1014.0 1012.9
06 17.06 штиль 0 8000 м ясно +24.5 +20.7 79 +30 +30 очень
душно
1014.9 1013.8 +24.5
09 17.06 СЗ 1 10 км 3/0
[Ci fib]
+26.7 +18.3 60 +31 +38 душно 1015.4 1014.3
12 17.06 СЗ 2 10 км 5/0
[Ci fib]
+32.1 +14.7 35 +34 +54 опасность
солнечного
удара
1014.9 1013.8
15 17.06 С 1 10 км 6/0
[Ci fib]
+36.6 +15.6 29 +38 +55 опасность
солнечного
удара
1012.3 1011.2
18 17.06 СЗ 2 10 км 8/0
[Ci fib]
+37.5 +15.7 28 +39 +41 очень
душно
1011.4 1010.3 +38.5
21 17.06 ЮЗ 2 8000 м 8/0
[Ci fib]
+32.0 +19.0 46 +37 +37 очень
душно
1013.4 1012.3
00 18.06 ЮЗ 3 8000 м 8/0
[Ci fib]
+27.5 +22.1 72 +36 +36 очень
душно
1015.5 1014.4
03 18.06 Ю 2 8000 м 6/0
[Ci fib]
+25.5 +21.5 79 +33 +33 очень
душно
1011.3 1010.3
06 18.06 ЮЗ 3 8000 м 8/0
[Ci fib]
+24.7 +22.2 86 +32 +32 очень
душно
1011.0 1009.9 +24.5
09 18.06 СЗ 5 10 км 10/0
[Ac As]
+26.0 +21.5 76 +33 +34 очень
душно
1012.2 1011.1
15 18.06 Ю 2 10 км 10/0
[Ac As]
+30.7 +19.9 53 +37 +42 очень
душно
1014.3 1013.2
18 18.06 Ю 1 10 км 10/0
[Ac As]
+29.7 +21.3 61 +38 +38 очень
душно
1013.9 1012.8 +31.7
21 18.06 Ю 1 8000 м 9/0
[Ac As]
+27.6 +22.0 72 +36 +36 очень
душно
1014.8 1013.7
00 19.06 ЮЗ 1 8000 м 5/0
[Ac trans]
+26.5 +22.2 77 +34 +34 очень
душно
1015.6 1014.5
03 19.06 ЮЗ 2 8000 м 9/0
[Ac As]
+25.9 +20.9 74 +32 +32 очень
душно
1014.3 1013.2
06 19.06 ЮЗ 1 8000 м 9/0
[Ac trans]
+25.0 +22.0 83 +32 +32 очень
душно
1014.3 1013.2 +25.0
09 19.06 ЮЗ 1 10 км слабый дождь 9/0
[Ac cast]
+25.6 +22.5 83 +34 +37 очень
душно
1016.4 1015.3
12 19.06 ЮЗ 1 10 км {дождь} 10/0
[Ac trans Cs]
+31.1 +20.7 54 +38 +53 опасность
солнечного
удара
1014.5 1013.4 0.0
15 19.06 ЮЗ 3 10 км 10/0
[Cs]
+35.0 +17.3 35 +38 +49 очень
душно
1011.3 1010.2
18 19.06 ЮЗ 2 10 км 9/0
[Ci]
+35.0 +18.6 38 +39 +41 очень
душно
1010.2 1009.1 +36.8
21 19.06 ЮЗ 2 8000 м 8/0
[Ci fib]
+31.1 +15.8 40 +34 +34 душно 1011.0 1009.9
00 20.06 ЮЗ 1 8000 м 9/0
[Ci fib]
+28.5 +12.4 37 +30 +30 жарко 1012.7 1011.6
03 20.06 ЮЗ 1 8000 м 9/0
[Ci fib]
+28.5 +12.4 37 +30 +30 жарко 1012.7 1011.6
06 20.06 Ю 2 8000 м 9/0
[Ci fib]
+24.5 +21.2 82 +31 +31 очень
душно
1012.5 1011.4 +24.0 0.0
09 20.06 Ю 3 10 км 8/0
[Ci fib]
+26.5 +21.9 76 +34 +39 очень
душно
1014.1 1013.0
12 20.06 Ю 3 10 км 8/0
[Ci fib]
+33.7 +16.7 36 +37 +50 очень
душно
1012.7 1011.6
15 20.06 ЮЗ 5 10 км ясно +36.0 +16.3 31 +38 +47 очень
душно
1010.6 1009.5
18 20.06 ЮЗ 3 10 км ясно +36.0 +17.7 34 +39 +41 очень
душно
1010.7 1009.6 +36.9
21 20.06 ЮЗ 4 8000 м ясно +30.8 +18.6 48 +36 +36 очень
душно
1014.0 1012.9
00 21.06 ЮЗ 3 8000 м ясно +28.0 +19.6 60 +34 +34 очень
душно
1014.4 1013.3

 

Местоположение метеостанции Kolda (Сенегал): широта 12.88 долгота -14.96 высота над уровнем моря 10 м.

В архиве по умолчанию представлена погода в Kolda за последнюю неделю. Архивные данные за месяц целиком и за предыдущие месяцы, начиная с января 2011 года, Вы можете получить, выбрав интересующий диапазон дат из раскрывающегося списка и нажав кнопку "Ввод!".


*Определитесь, кто Вы:
робот инопланетянин человек

Внимание! Время в таблицах - всемирное. Для получения местного времени необходимо прибавить поправку, которая в Kolda равна 0 ч.

Смотрите также архив погоды в соседних городах и на ближайших метеорологических станциях:

Погода в Georgetown (Гамбия) (75 км)
Погода в Bafata (Гвинея-Биссау) (85 км)
Погода в Basse (Гамбия) (89 км)
Погода в Jenoi (Гамбия) (94 км)
Погода в Kauur (Гамбия) (100 км)
Погода в Sapu (Гамбия) (130 км)
Погода в Bissau (Гвинея-Биссау) (132 км)
Погода в Sibanor (Гамбия) (140 км)
Погода в Kerewan (Гамбия) (140 км)
Погода в Ziguinchor (Сенегал) (146 км)

Пояснения к столбцам:

Ветер - указаны скорость ветра в м/с - средняя за 10 мин, порывы в срок и между сроками (в фигурных скобках) и направление, откуда дует ветер: С - северный, СВ - северо-восточный, В - восточный, ЮВ - юго-восточный, Ю - южный, ЮЗ - юго-западный, З - западный, СЗ - северо-западный.
Видимость - горизонтальная дальность видимости в метрах или километрах. При видимости от 1 до 10 км при отсутствии осадков обычно наблюдается дымка, при ухудшении видимости до 1 км и менее - туман. В сухую погоду видимость может ухудшаться дымом, пылью или мглою.
Явления - указаны атмосферные явления, наблюдавшиеся в срок или в последний час перед сроком; фигурными скобками обозначены явления, наблюдавшиеся между сроками (за 1-3 часа до срока); квадратными скобками обозначены град или гололедные отложения с указанием их диаметра в мм.
Облачность - указаны через наклонную черту общая и нижняя облачность в баллах и высота нижней границы облаков в метрах; квадратными скобками обозначены формы облаков: Ci - перистые, Cs - перисто-слоистые, Cc - перисто-кучевые, Ac - высококучевые, As - высокослоистые, Sc - слоисто-кучевые, Ns - слоисто-дождевые, Cu - кучевые, Cb - кучево-дождевые. Подробнее классификацию облаков см. в Атласе облаков (PDF).
T - Температура воздуха - температура, измеренная на высоте 2 м над землей.
Td - Температура точки росы - температура, при понижении до которой содержащийся в воздухе водяной пар достигнет насыщения.
f - Относительная влажность воздуха - влажноcть воздуха, измеренная на высоте 2 м над землей.
Te - Эффективная температура - температура, которую ощущает одетый по сезону человек в тени. Характеристика душности погоды. При расчете учитывается влияние влажности воздуха и скорости ветра на теплоощущения человека.
Tes - Эффективная температура на солнце - температура, которую ощущает человек, с поправкой на солнечный нагрев. Характеристика знойности погоды. Зависит от высоты солнца над горизонтом, облачности и скорости ветра. Ночью, в пасмурную погоду, а также при ветре 12 м/с и более поправка равна нулю.
P - Атмосферное давление - приведенное к уровню моря атмосферное давление.
Po - Атмосферное давление - измеренное на уровне метеостанции атмосферное давление.
Tmin - Минимальная температура - минимум температуры воздуха на высоте 2 м над землей.
Tmax - Максимальная температура - максимум температуры воздуха на высоте 2 м над землей.
R - Количество осадков - Количество выпавших осадков за период времени, мм. При наведении курсора мыши на число - период времени, за который выпало указанное количество осадков.
R24 - Количество осадков - Количество выпавших осадков за 24 часа, мм.
S - Снежный покров - Высота снежного покрова, см. При наведении курсора мыши на число - состояние снежного покрова и степень покрытия местности в баллах.